Regional Weather Roundup
Issued by NWS

Home | Current Version | Previous Version | Graphics & Text | Print | Product List | Glossary Off
Versions: 1 2 3 4 5 6 7 8 9 10 11 12 13 14 15 16 17 18 19 20 21 22 23 24 25 26 27 28 29 30 31 32 33 34 35 36 37 38 39 40 41 42 43 44 45 46 47 48 49 50

000
ASUS43 KDTX 272210
RWRMI
MICHIGAN HOURLY REGIONAL WEATHER ROUNDUP
NATIONAL WEATHER SERVICE DETROIT/PONTIAC MI
600 PM EDT WED AUG 27 2014

NOTE: "FAIR" INDICATES FEW OR NO CLOUDS BELOW 12,000 FEET WITH NO
SIGNIFICANT WEATHER AND/OR OBSTRUCTION TO VISIBILITY.

MIZ047>049-052>055-059>063-066>070-074>076-081>083-272300-
SOUTHEAST LOWER MICHIGAN

CITY           SKY/WX    TMP DP  RH WIND       PRES   REMARKS
ADRIAN         MOSUNNY   79  61  53 N10       30.09S
ALMA           PTSUNNY   74  57  54 NW7       30.11F
ANN ARBOR      MOSUNNY   75  57  53 NW9       30.09S
BAD AXE        SUNNY     71  54  53 NW8       30.12S
DETROIT CITY   MOSUNNY   79  55  43 NW7       30.08S
DETROIT        PTSUNNY   75  59  57 NW10      30.08S
FLINT          MOSUNNY   77  56  48 N8        30.11S
GROSSE ILE     MOSUNNY   79  57  47 N6        30.06F
HILLSDALE      MOSUNNY   76  59  55 N7        30.12S
HOWELL         PTSUNNY   73  58  59 NW8       30.11F

CITY           SKY/WX    TMP DP  RH WIND       PRES   REMARKS
JACKSON        PTSUNNY   73  61  65 N6        30.11F
LAMBERTVILLE   MOSUNNY   79  59  50 N6        30.08S
LANSING        MOSUNNY   74  58  57 N7        30.12S
LAPEER         NOT AVBL
MASON          MOSUNNY   73  59  60 N6        30.12R
MONROE         MOSUNNY   77  63  61 N6        30.07S
MT. CLEMENS    MOSUNNY   75  56  52 NW12      30.08R
PONTIAC        PTSUNNY   74  57  55 NW9       30.10S
PORT HOPE        N/A     68  53  58 N5        30.11S
PORT HURON     MOSUNNY   68  59  73 NE9       30.11S
TRI CITIES     MOSUNNY   74  58  57 N5        30.12S
YPSILANTI      MOSUNNY   80  59  48 N8        30.09S
$$
MIZ043>046-050>051-056>058-064>065-071>073-077>080-272300-
SOUTHWEST LOWER MICHIGAN

CITY           SKY/WX    TMP DP  RH WIND       PRES   REMARKS
BATTLE CREEK   PTSUNNY   74  58  57 N9        30.13S
BENTON HARBOR  PTSUNNY   70  58  65 VRB3      30.14S
BIG RAPIDS     SUNNY     72  57  59 NW7       30.13S
COLDWATER      PTSUNNY   78  59  52 N7        30.11S
HOLLAND        PTSUNNY   73  61  65 NW9       30.15S
GRAND RAPIDS   PTSUNNY   76  61  59 NW6       30.13S
KALAMAZOO      CLOUDY    77  59  53 N9        30.12S
MARSHALL       PTSUNNY   74  59  60 N3        30.11S
MUSKEGON       PTSUNNY   73  52  47 NW12      30.14F
$$
MIZ016>042-272300-
NORTHERN LOWER MICHIGAN

CITY           SKY/WX    TMP DP  RH WIND       PRES   REMARKS
ALPENA         MOSUNNY   67  48  50 N15G23    30.12S
BEAVER ISLAND  PTSUNNY   66  51  58 W7        30.17S
BELLAIRE       SUNNY     66  49  53 NW6       30.16S
CADILLAC       PTSUNNY   66  54  66 N9        30.15S
CHARLEVOIX     SUNNY     66  51  57 NW9       30.19S
FRANKFORT      MOCLDY    68  49  51 NE5       30.16F
GAYLORD        MOSUNNY   64  45  49 W13G18    30.16S
GRAYLING       SUNNY     69  48  46 W9        30.16F
HARBOR SPRINGS CLOUDY    66  51  59 W8        30.16S
HOUGHTON LAKE  MOSUNNY   69  50  50 N10       30.15S
MANISTEE       MOSUNNY   66  52  59 NW7       30.17F
OSCODA         CLOUDY    66  55  67 NE9       30.11R
PELLSTON       MOSUNNY   67  45  45 NW18      30.16S
TRAVERSE CITY  PTSUNNY   68  50  52 N7        30.15F
$$
MIZ007>008-015-272300-
EASTERN UPPER MICHIGAN

CITY           SKY/WX    TMP DP  RH WIND       PRES   REMARKS
KINROSS        MOSUNNY   63  45  51 NW17G24   30.14S
MACKINAC ISLAN MOSUNNY   65  48  53 NW8G16    30.14S
NEWBERRY       SUNNY     62  42  47 NW9       30.16S
S. S. MARIE    CLOUDY    61  45  55 NW12G22   30.15R
$$
MIZ004>006-011>014-085-272300-
CENTRAL UPPER MICHIGAN

CITY           SKY/WX    TMP DP  RH WIND       PRES   REMARKS
MANISTIQUE     SUNNY     67  45  45 N12       30.15F
ESCANABA       SUNNY     66  54  63 S7        30.15S
MENOMINEE      PTSUNNY   70  55  60 S5        30.13F
SAWYER-GWINN   SUNNY     63  45  51 NE13      30.17F
$$
MIZ001>003-009>011-084-272300-
WESTERN UPPER MICHIGAN

CITY           SKY/WX    TMP DP  RH WIND       PRES   REMARKS
IRON MOUNTAIN  SUNNY     71  47  42 NW6       30.14F
HOUGHTON       SUNNY     63  45  51 W13       30.17S
COPPER HARBOR    N/A     60  51  72 N12       30.16F
$$

ABBREVIATIONS USED IN REMARKS
   TC - TEMPERATURE IN CELSIUS
  WCI - WIND CHILL INDEX
   HX - HEAT INDEX
  VSB - VISIBILITY



USA.gov is the U.S. government's official web portal to all federal, state and local government web resources and services.